Wind_Speed
30 31 27 27 25 22 17 15 13 28 24 18 22 27 33 2 10 13 10 8 7 8 9 9 8 9 9 8 8 7 6 5 4 4 3 3 3 3 3 2 2 4 5 6
33 32 26 29 29 27 23 24 23 22 26 18 20 20 23 15 16 17 14 12 11 10 9 8 8 9 10 9 9 9 8 7 6 5 4 6 5 5 5 5 5 7 9 11
23 24 30 32 35 31 30 30 22 19 23 25 18 18 20 26 24 20 17 14 12 12 11 11 10 10 10 10 12 12 10 8 8 7 7 7 7 6 7 8 9 11 13 15
19 23 33 36 36 33 32 29 25 21 27 30 28 28 23 21 25 19 20 16 15 14 13 13 13 13 13 13 12 11 12 12 11 9 10 10 9 10 10 11 14 16 18 20
18 21 28 35 38 34 31 27 30 26 26 32 27 31 26 29 35 25 20 17 18 17 15 16 17 19 18 17 15 15 14 13 13 13 13 13 12 13 14 15 17 20 21 18
22 22 25 28 36 39 34 32 30 32 30 36 28 33 26 30 34 31 33 24 19 20 17 19 19 20 22 21 18 18 19 19 17 15 16 16 17 16 16 17 19 18 14 12
22 23 23 25 34 36 41 35 36 37 40 39 28 36 31 28 33 35 36 23 24 23 24 19 19 16 17 18 20 19 20 20 19 18 18 19 19 17 17 19 19 15 12 11
32 31 28 28 28 36 39 40 45 42 41 34 32 39 36 24 38 35 6 11 26 27 23 22 16 13 11 10 16 18 18 23 25 23 20 20 20 20 19 18 16 15 13 8
35 37 30 30 31 35 35 43 42 40 33 35 33 32 28 34 37 36 33 25 21 22 33 16 19 15 10 9 10 13 15 19 20 21 22 21 19 19 15 14 12 10 7 12
36 34 36 31 32 35 39 32 41 47 46 45 38 35 36 30 39 30 33 28 26 30 33 29 23 18 13 9 10 10 12 13 16 17 20 20 19 14 12 8 7 6 6 12
41 40 34 31 43 37 40 44 45 38 49 50 44 41 31 29 32 37 42 34 28 35 33 34 24 21 14 16 12 10 14 16 14 13 15 19 16 12 9 7 3 8 10 11
45 44 46 41 33 32 38 40 43 51 48 52 48 43 23 31 31 34 41 33 35 43 32 32 25 23 19 15 10 8 12 14 15 13 13 11 12 10 9 6 8 10 14 15
37 46 44 46 39 35 42 41 41 45 51 46 51 52 36 37 34 17 27 19 19 24 33 33 28 28 24 18 16 13 14 14 13 10 9 8 8 8 9 10 12 10 16 18
43 43 49 52 49 37 37 41 40 41 46 55 49 47 48 41 42 34 32 28 37 36 27 31 26 27 25 24 21 18 17 19 15 10 7 8 9 11 12 10 10 13 15 20
55 57 44 46 39 31 34 34 39 42 45 49 53 43 40 50 34 31 35 26 32 40 35 34 35 36 32 31 26 24 23 22 18 14 10 11 13 12 9 10 9 13 18 21
55 58 53 47 39 41 35 34 38 40 42 46 45 49 42 42 51 39 38 41 32 41 43 50 42 38 36 38 32 28 29 26 22 19 16 16 15 14 14 15 16 15 18 22
51 60 60 60 47 35 42 46 34 34 34 35 41 49 45 48 45 49 46 33 29 35 37 52 52 38 37 36 35 28 29 29 26 24 17 19 10 12 13 17 21 23 25 25
53 56 60 56 45 44 51 36 39 35 33 31 31 31 41 53 56 57 57 42 48 40 45 49 50 51 41 38 39 33 33 31 28 25 23 20 17 17 16 17 20 24 26 30
44 51 48 44 51 51 43 36 30 34 38 34 37 40 35 34 42 66 58 56 57 54 33 44 44 45 43 39 41 36 35 34 31 30 27 21 20 19 16 18 23 28 29 34
42 46 46 45 44 50 41 32 41 50 47 48 51 54 52 45 45 39 53 66 62 57 51 53 45 30 43 39 41 38 38 36 35 34 26 24 26 26 25 24 28 29 33 37
61 53 53 48 53 41 32 43 45 46 46 49 45 45 44 48 54 45 39 40 55 66 67 64 53 49 51 41 43 41 36 35 31 31 26 25 27 28 30 30 32 33 38 42
66 57 46 42 45 35 46 41 49 51 50 41 45 41 42 47 47 52 39 37 40 46 61 67 64 60 47 38 43 43 38 37 33 31 25 27 29 31 32 35 34 39 43 46
61 59 53 46 43 36 42 53 51 48 45 44 42 35 36 40 40 45 48 56 50 43 43 47 51 50 44 46 47 45 39 37 29 28 29 30 35 37 38 46 33 41 44 46
57 52 52 43 49 48 52 46 47 49 43 41 40 43 42 42 41 44 51 56 51 49 46 54 50 50 50 51 49 47 38 33 31 32 30 36 39 41 41 40 40 42 46 52
54 49 39 40 41 51 50 50 52 54 48 39 36 36 37 44 43 43 46 49 49 58 55 51 46 47 52 53 49 44 39 37 37 34 37 44 44 43 47 43 45 47 50 53
43 52 47 51 56 55 59 53 48 47 46 39 36 37 42 41 40 38 40 39 36 37 48 53 44 44 48 48 46 44 42 42 41 44 46 47 42 43 42 45 47 51 53 55
Wind_Direction
233 229 234 233 238 226 196 210 225 233 231 214 254 294 200 160 251 261 228 206 187 198 203 201 204 207 210 212 215 226 240 247 241 248 273 235 218 224 241 251 298 313 306 312
231 237 235 235 233 233 217 189 212 260 278 223 233 275 273 284 280 267 244 216 206 202 206 213 226 226 230 233 238 243 248 253 248 246 253 239 230 242 261 281 298 305 302 307
246 235 233 231 231 229 224 189 209 219 259 278 219 226 239 260 271 263 264 248 229 224 223 216 221 232 240 245 245 248 252 251 250 248 249 243 248 258 268 285 293 295 296 302
251 231 227 230 232 229 227 203 190 224 235 239 248 234 246 235 275 272 263 263 260 245 241 241 237 234 233 237 246 251 249 245 245 242 248 245 252 261 271 280 287 293 299 303
251 237 235 230 235 229 229 219 202 222 225 258 244 216 229 258 253 266 272 266 268 265 255 252 249 246 243 244 246 249 251 246 248 246 247 251 252 262 274 285 294 297 298 302
233 236 233 234 234 227 226 218 223 230 226 233 233 250 233 237 259 231 248 260 263 265 277 280 263 258 258 254 252 259 256 254 247 246 249 252 256 264 276 289 299 302 296 299
245 238 242 231 229 232 220 219 219 223 222 231 238 258 273 218 254 262 242 222 284 274 282 290 279 270 268 265 260 256 256 254 251 247 251 253 259 266 277 291 300 299 298 306
247 237 230 237 232 229 231 216 221 219 224 230 232 228 249 253 244 252 290 240 260 273 268 284 280 270 265 264 263 260 251 244 245 249 253 257 257 264 278 292 292 298 301 328
247 248 242 229 234 229 235 225 229 225 231 231 232 243 240 234 243 260 262 206 218 258 280 283 260 254 241 258 293 286 266 255 253 247 249 252 251 261 278 283 300 317 309 337
237 238 245 242 229 237 231 236 225 218 223 227 229 225 243 225 252 247 259 209 233 245 255 263 256 245 249 263 275 307 306 291 273 266 250 244 248 258 259 268 328 5 345 351
238 232 225 234 242 233 233 226 223 230 221 223 229 224 226 250 236 245 261 265 232 245 247 260 246 236 231 250 262 278 302 296 296 273 254 241 240 235 238 272 304 325 332 333
241 230 230 225 236 240 236 241 234 215 224 225 223 224 219 230 248 248 246 245 254 258 243 263 253 240 231 243 259 270 299 291 285 268 262 236 229 233 246 230 312 298 324 343
225 235 227 225 219 226 233 231 235 229 222 222 225 221 193 248 238 232 251 238 212 215 235 244 252 248 240 242 254 263 286 295 276 271 254 252 251 262 277 298 302 298 325 329
224 226 234 231 236 227 226 231 234 228 226 224 221 233 200 236 252 256 247 230 215 215 224 231 240 245 247 253 252 260 267 284 280 262 269 283 284 286 282 281 284 291 317 336
213 215 217 232 212 223 224 234 229 232 236 224 226 221 231 206 233 254 250 249 210 209 234 242 250 259 261 257 253 257 257 267 274 252 256 276 284 291 262 275 290 320 331 333
217 222 209 213 221 202 219 231 231 237 237 228 224 226 221 222 212 227 256 225 236 236 246 241 239 244 251 259 263 258 252 255 265 265 251 262 280 288 272 273 295 318 325 329
230 219 214 221 219 216 225 216 223 233 235 234 228 225 224 218 219 223 230 226 236 255 247 240 239 233 237 248 256 246 243 250 258 263 262 260 258 269 283 285 286 299 315 316
216 225 217 221 219 215 227 224 225 218 225 239 252 253 236 222 215 216 220 229 236 230 236 241 241 248 245 242 246 242 236 245 256 266 275 255 246 260 272 284 291 295 306 313
206 227 216 211 217 230 219 217 215 222 229 227 224 226 230 245 237 223 214 222 230 237 231 248 226 243 247 242 241 239 243 243 253 262 274 262 244 255 272 286 296 300 305 311
197 212 198 202 211 222 219 214 225 225 227 223 221 229 224 225 230 234 227 222 223 229 226 233 232 234 252 240 238 238 242 247 252 262 270 262 255 261 276 286 295 300 305 306
195 203 205 204 211 208 212 221 227 229 233 236 233 230 225 231 234 232 227 237 232 227 228 235 237 242 249 247 237 240 241 247 251 256 261 267 269 268 277 284 294 302 303 304
198 197 193 204 216 220 219 220 222 226 232 234 234 236 240 240 235 232 229 230 238 229 227 228 234 240 239 238 234 244 239 243 251 257 264 268 272 276 276 280 289 293 295 295
192 196 201 202 207 214 215 221 231 239 236 231 235 249 248 237 241 235 230 236 231 220 224 227 230 229 227 225 228 238 237 242 246 251 259 266 271 275 277 270 284 291 293 293
194 199 207 213 213 216 221 228 232 233 237 238 244 248 252 241 239 228 223 224 226 215 222 226 232 225 218 219 226 234 232 235 243 250 261 265 268 269 269 280 290 289 290 296
207 200 200 205 223 222 227 226 226 234 238 240 243 252 246 241 242 229 228 229 230 218 221 222 230 221 215 219 225 231 233 236 246 253 258 258 261 261 267 275 284 287 292 297
195 198 199 199 220 221 223 226 231 234 233 236 245 252 242 239 234 241 231 230 229 234 226 228 223 214 215 221 225 232 235 240 245 251 253 256 262 270 269 278 282 287 290 295
Height
5863 5865 5868 5873 5877 5882 5884 5893 5897 5896 5898 5898 5894 5894 5885 5891 5896 5899 5900 5900 5900 5901 5903 5903 5905 5906 5908 5910 5911 5913 5915 5916 5917 5919 5920 5921 5922 5923 5923 5924 5925 5925 5926 5925
5858 5860 5868 5871 5874 5878 5881 5885 5894 5897 5893 5895 5899 5893 5893 5889 5899 5899 5900 5899 5899 5900 5902 5903 5905 5906 5907 5909 5910 5912 5913 5915 5916 5917 5919 5920 5921 5921 5922 5923 5924 5924 5924 5923
5853 5860 5862 5864 5867 5872 5877 5880 5887 5894 5892 5893 5898 5899 5900 5895 5897 5900 5898 5899 5899 5899 5901 5902 5903 5904 5906 5908 5909 5910 5912 5913 5914 5916 5917 5918 5919 5920 5921 5922 5922 5922 5922 5921
5849 5853 5854 5857 5859 5867 5871 5880 5882 5890 5891 5889 5892 5892 5896 5892 5894 5897 5899 5898 5898 5899 5900 5901 5902 5903 5904 5906 5907 5909 5909 5911 5912 5913 5914 5915 5917 5918 5919 5920 5920 5920 5919 5918
5845 5846 5848 5851 5854 5861 5866 5875 5879 5883 5888 5882 5886 5887 5892 5895 5892 5890 5893 5897 5898 5898 5898 5899 5900 5901 5902 5904 5906 5907 5908 5909 5910 5911 5912 5913 5914 5914 5915 5916 5916 5916 5915 5914
5836 5840 5842 5847 5849 5853 5863 5868 5874 5877 5880 5879 5880 5882 5888 5888 5890 5891 5890 5891 5895 5896 5897 5898 5898 5898 5899 5900 5902 5903 5905 5905 5906 5907 5909 5910 5910 5911 5912 5912 5912 5912 5911 5911
5831 5832 5837 5840 5843 5846 5851 5858 5863 5867 5868 5869 5881 5876 5879 5882 5887 5886 5885 5883 5888 5894 5893 5894 5894 5895 5896 5897 5898 5900 5900 5901 5901 5902 5904 5905 5906 5907 5908 5908 5908 5908 5908 5907
5822 5824 5827 5832 5836 5840 5842 5848 5850 5855 5861 5868 5874 5872 5877 5882 5881 5884 5875 5882 5888 5886 5890 5891 5892 5892 5893 5893 5894 5895 5895 5895 5896 5898 5899 5900 5902 5902 5904 5904 5904 5905 5904 5905
5812 5817 5821 5823 5827 5832 5837 5836 5846 5852 5859 5862 5866 5871 5876 5879 5873 5874 5879 5882 5887 5883 5881 5886 5888 5889 5890 5891 5891 5890 5891 5891 5892 5893 5894 5896 5897 5899 5901 5901 5902 5902 5902 5902
5805 5808 5811 5815 5819 5822 5824 5836 5835 5837 5844 5847 5857 5862 5866 5873 5866 5870 5870 5878 5883 5885 5881 5882 5885 5886 5887 5888 5889 5888 5888 5887 5887 5888 5890 5892 5893 5896 5898 5899 5900 5900 5899 5900
5795 5798 5805 5806 5803 5814 5815 5819 5822 5832 5835 5839 5847 5850 5863 5867 5870 5870 5866 5870 5876 5878 5878 5878 5881 5882 5883 5884 5886 5886 5886 5885 5884 5884 5885 5887 5891 5893 5895 5897 5898 5897 5897 5897
5779 5787 5789 5796 5801 5803 5806 5810 5814 5815 5823 5828 5837 5843 5859 5862 5863 5862 5864 5867 5868 5872 5873 5872 5875 5878 5879 5880 5882 5883 5883 5882 5882 5883 5884 5886 5889 5891 5893 5894 5895 5894 5894 5893
5770 5770 5778 5783 5790 5792 5792 5800 5804 5809 5816 5819 5827 5831 5847 5844 5849 5847 5853 5857 5861 5863 5865 5865 5867 5869 5874 5877 5878 5879 5879 5879 5880 5881 5882 5885 5887 5888 5889 5891 5891 5890 5889 5888
5759 5762 5761 5768 5777 5786 5788 5790 5795 5799 5802 5808 5813 5827 5837 5840 5841 5844 5845 5849 5854 5856 5856 5858 5861 5860 5866 5870 5873 5874 5876 5876 5877 5879 5880 5882 5884 5885 5886 5887 5887 5887 5885 5881
5741 5743 5753 5758 5767 5776 5780 5784 5788 5787 5791 5798 5805 5816 5825 5833 5838 5836 5840 5838 5844 5851 5850 5852 5855 5855 5858 5862 5866 5869 5871 5871 5872 5875 5877 5879 5880 5882 5882 5882 5882 5881 5879 5877
5728 5729 5741 5745 5755 5761 5769 5775 5779 5779 5781 5786 5796 5804 5815 5823 5829 5831 5825 5836 5834 5843 5845 5845 5850 5852 5854 5854 5858 5862 5865 5867 5867 5869 5873 5874 5875 5876 5877 5876 5876 5875 5874 5873
5707 5717 5727 5731 5743 5753 5757 5757 5769 5775 5778 5781 5785 5790 5801 5808 5814 5821 5826 5823 5827 5830 5834 5836 5836 5843 5846 5848 5850 5853 5858 5859 5861 5863 5867 5868 5870 5871 5870 5870 5869 5869 5868 5867
5694 5699 5714 5722 5733 5735 5739 5755 5760 5766 5771 5775 5777 5781 5787 5791 5797 5801 5810 5810 5816 5817 5822 5828 5832 5833 5840 5842 5842 5847 5850 5851 5854 5857 5859 5862 5864 5865 5865 5864 5863 5863 5862 5861
5686 5690 5703 5710 5716 5727 5735 5744 5751 5756 5759 5766 5768 5769 5776 5780 5785 5790 5795 5800 5803 5805 5812 5816 5822 5826 5828 5834 5836 5839 5841 5845 5847 5850 5852 5854 5855 5857 5858 5857 5857 5856 5855 5853
5674 5679 5691 5701 5706 5710 5726 5739 5736 5741 5745 5747 5751 5754 5761 5764 5766 5773 5785 5790 5793 5796 5801 5804 5812 5814 5815 5825 5828 5830 5833 5837 5839 5842 5845 5846 5848 5849 5850 5850 5850 5849 5847 5845
5656 5665 5677 5687 5695 5705 5718 5723 5722 5729 5737 5739 5744 5746 5751 5754 5759 5765 5766 5770 5778 5784 5790 5795 5797 5799 5805 5814 5817 5821 5825 5828 5832 5833 5836 5838 5839 5841 5841 5842 5842 5841 5840 5837
5649 5660 5670 5683 5690 5699 5701 5705 5713 5717 5722 5730 5734 5738 5741 5745 5749 5753 5759 5759 5762 5769 5776 5783 5783 5788 5795 5804 5807 5812 5816 5820 5822 5824 5827 5829 5831 5832 5833 5833 5831 5832 5831 5829
5642 5654 5666 5676 5684 5685 5691 5694 5701 5707 5711 5718 5725 5729 5733 5736 5737 5741 5745 5746 5751 5757 5763 5766 5769 5778 5786 5792 5796 5801 5806 5810 5814 5816 5819 5821 5822 5823 5824 5821 5822 5821 5819 5817
5633 5644 5650 5667 5672 5679 5682 5689 5693 5697 5701 5710 5716 5720 5723 5724 5723 5727 5726 5731 5740 5745 5750 5753 5760 5765 5773 5780 5786 5792 5797 5802 5805 5807 5810 5813 5814 5814 5813 5811 5812 5811 5809 5806
5626 5637 5646 5656 5661 5668 5673 5678 5682 5687 5696 5703 5707 5710 5711 5710 5712 5713 5716 5720 5725 5731 5738 5745 5750 5755 5762 5769 5777 5784 5789 5792 5796 5800 5802 5803 5803 5803 5802 5802 5802 5800 5797 5793
5621 5630 5637 5643 5648 5655 5659 5668 5674 5680 5688 5695 5699 5700 5701 5700 5703 5700 5706 5709 5715 5723 5732 5737 5743 5748 5754 5761 5769 5774 5780 5783 5786 5788 5790 5792 5793 5791 5791 5791 5789 5787 5784 5780